This is the latest recevied weather packets stored in our database for station/object DL9TK-10. If no packets are shown the sender has not sent any weather packets the latest 10 day(s).
| Time | Temp. | Humidity | Pressure | Rain* | Wind** | Luminosity | Snow |
|---|---|---|---|---|---|---|---|
| 1777611406 | 10° C | 46% | 1029.9 hPa | - | - | - | - |
| 1777610506 | 9.44° C | 47% | 1030 hPa | - | - | - | - |
| 1777609606 | 8.89° C | 47% | 1029.9 hPa | - | - | - | - |
| 1777608706 | 8.89° C | 47% | 1029.7 hPa | - | - | - | - |
| 1777607806 | 9.44° C | 47% | 1029.9 hPa | - | - | - | - |
| 1777606906 | 9.44° C | 47% | 1029.7 hPa | - | - | - | - |
| 1777606006 | 9.44° C | 47% | 1029.8 hPa | - | - | - | - |
| 1777605106 | 10° C | 46% | 1029.9 hPa | - | - | - | - |
| 1777604206 | 10° C | 45% | 1029.9 hPa | - | - | - | - |
| 1777603306 | 10.56° C | 45% | 1029.9 hPa | - | - | - | - |
| 1777602406 | 10.56° C | 45% | 1029.9 hPa | - | - | - | - |
| 1777601505 | 10.56° C | 45% | 1029.9 hPa | - | - | - | - |
| 1777600605 | 11.11° C | 44% | 1029.9 hPa | - | - | - | - |
| 1777599705 | 11.11° C | 44% | 1029.9 hPa | - | - | - | - |
| 1777598805 | 11.11° C | 44% | 1029.9 hPa | - | - | - | - |
| 1777597905 | 11.11° C | 44% | 1029.9 hPa | - | - | - | - |
| 1777597005 | 11.67° C | 43% | 1030 hPa | - | - | - | - |
| 1777596105 | 12.22° C | 43% | 1029.9 hPa | - | - | - | - |
| 1777595205 | 12.22° C | 42% | 1029.9 hPa | - | - | - | - |
| 1777594305 | 12.78° C | 42% | 1029.9 hPa | - | - | - | - |
| 1777593405 | 12.78° C | 41% | 1030 hPa | - | - | - | - |
| 1777592505 | 13.33° C | 41% | 1030.1 hPa | - | - | - | - |
| 1777591605 | 13.33° C | 40% | 1030 hPa | - | - | - | - |
| 1777590705 | 13.89° C | 40% | 1030.1 hPa | - | - | - | - |
| 1777589804 | 14.44° C | 40% | 1030 hPa | - | - | - | - |
* Rain since midnight (hover to see other rain measurements)
** Current wind speed in m/s (hover to see current wind gust speed)